| time (UTC) | temp F | wind direction | speed knots | gust knots | rain 1hr in | rain 24hr in | rain mn in | humidity % | barometer mb |
| 20260903064555 | 53 | 178 | 0.9 | 6.1 | 0.00 | 0.41 | 0.41 | 100 | 1010.1 |
| 20260903063051 | 53 | 235 | 0.9 | 2.6 | 0.00 | 0.41 | 0.41 | 100 | 1010.2 |
| 20260903061549 | 54 | 201 | 0.9 | 2.6 | 0.00 | 0.41 | 0.41 | 100 | 1010.3 |
| 20260903060053 | 54 | 217 | 0.0 | 4.3 | 0.00 | 0.41 | 0.41 | 100 | 1010.3 |
| 20260903054535 | 54 | 158 | 0.0 | 3.5 | 0.00 | 0.41 | 0.41 | 100 | 1010.2 |
| 20260903053035 | 54 | 168 | 1.7 | 6.1 | 0.00 | 0.41 | 0.41 | 100 | 1010.2 |
| 20260903051526 | 54 | 207 | 0.0 | 1.7 | 0.00 | 0.41 | 0.41 | 100 | 1010.2 |
| 20260903050022 | 54 | 211 | 0.9 | 5.2 | 0.00 | 0.41 | 0.41 | 100 | 1010.1 |
| 20260903044519 | 54 | 161 | 0.9 | 4.3 | 0.00 | 0.41 | 0.41 | 100 | 1010.0 |
| 20260903043019 | 54 | 256 | 0.9 | 4.3 | 0.00 | 0.41 | 0.41 | 100 | 1009.9 |
| 20260903041511 | 54 | 193 | 0.0 | 4.3 | 0.00 | 0.41 | 0.41 | 100 | 1009.8 |
| 20260903040010 | 54 | 102 | 0.9 | 5.2 | 0.00 | 0.41 | 0.41 | 100 | 1009.6 |
| 20260903034600 | 54 | 169 | 0.0 | 0.9 | 0.00 | 0.41 | 0.41 | 100 | 1009.6 |
| 20260903033056 | 54 | 162 | 0.0 | 0.9 | 0.00 | 0.41 | 0.41 | 100 | 1009.5 |
| 20260903031551 | 54 | 162 | 0.0 | 0.9 | 0.00 | 0.41 | 0.41 | 100 | 1009.4 |
| 20260903030051 | 55 | 162 | 0.0 | 0.9 | 0.00 | 0.41 | 0.41 | 100 | 1009.0 |
| 20260903024541 | 55 | 168 | 0.0 | 2.6 | 0.00 | 0.41 | 0.41 | 100 | 1008.6 |
| 20260903023037 | 55 | 223 | 0.0 | 4.3 | 0.00 | 0.41 | 0.41 | 100 | 1008.7 |
| 20260903021542 | 55 | 196 | 0.0 | 3.5 | 0.01 | 0.41 | 0.41 | 100 | 1008.7 |
| 20260903020034 | 56 | 194 | 0.9 | 3.5 | 0.01 | 0.41 | 0.41 | 100 | 1008.5 |
| 20260903014524 | 55 | 197 | 0.0 | 4.3 | 0.01 | 0.41 | 0.41 | 100 | 1008.3 |
| 20260903013020 | 55 | 172 | 0.0 | 3.5 | 0.02 | 0.41 | 0.41 | 100 | 1008.4 |
| 20260903011515 | 56 | 197 | 0.9 | 4.3 | 0.01 | 0.40 | 0.40 | 100 | 1008.2 |
| 20260903010011 | 56 | 256 | 0.0 | 6.1 | 0.01 | 0.40 | 0.40 | 100 | 1008.2 |
| 20260903004510 | 56 | 183 | 0.9 | 6.1 | 0.01 | 0.40 | 0.40 | 100 | 1007.9 |
| 20260903003002 | 57 | 167 | 0.0 | 3.5 | 0.00 | 0.39 | 0.39 | 100 | 1008.1 |
| 20260903001559 | 57 | 201 | 0.9 | 4.3 | 0.00 | 0.39 | 0.39 | 100 | 1007.9 |
| 20260903000059 | 56 | 176 | 0.0 | 2.6 | 0.09 | 0.39 | 0.39 | 100 | 1007.7 |
| 20260902234557 | 56 | 231 | 0.0 | 2.6 | 0.12 | 0.39 | 0.39 | 100 | 1007.6 |
| 20260902233052 | 56 | 263 | 0.0 | 5.2 | 0.14 | 0.39 | 0.39 | 100 | 1007.6 |
| 20260902231540 | 56 | 205 | 0.9 | 8.7 | 0.15 | 0.39 | 0.39 | 100 | 1007.3 |
| 20260902230043 | 57 | 277 | 2.6 | 7.0 | 0.06 | 0.30 | 0.30 | 100 | 1006.9 |
| 20260902224532 | 57 | 174 | 1.7 | 13.9 | 0.03 | 0.27 | 0.27 | 100 | 1006.9 |
| 20260902223028 | 57 | 161 | 1.7 | 7.8 | 0.01 | 0.25 | 0.25 | 100 | 1006.8 |
| 20260902221523 | 57 | 202 | 1.7 | 7.0 | 0.01 | 0.24 | 0.24 | 100 | 1006.7 |
| 20260902220025 | 57 | 203 | 1.7 | 6.1 | 0.01 | 0.24 | 0.24 | 100 | 1006.7 |
| 20260902214532 | 57 | 223 | 2.6 | 7.0 | 0.01 | 0.24 | 0.24 | 100 | 1006.8 |
| 20260902213009 | 57 | 201 | 1.7 | 7.0 | 0.01 | 0.24 | 0.24 | 100 | 1006.7 |
| 20260902211506 | 57 | 249 | 1.7 | 5.2 | 0.01 | 0.23 | 0.23 | 100 | 1006.6 |
| 20260902204557 | 57 | 200 | 2.6 | 11.3 | 0.01 | 0.23 | 0.23 | 100 | 1006.4 |
| 20260902203052 | 56 | 192 | 1.7 | 6.1 | 0.01 | 0.23 | 0.23 | 100 | 1006.3 |
| 20260902201549 | 56 | 108 | 0.9 | 5.2 | 0.01 | 0.22 | 0.22 | 100 | 1006.1 |
| 20260902200044 | 56 | 204 | 0.0 | 4.3 | 0.02 | 0.22 | 0.22 | 100 | 1006.0 |
| 20260902194539 | 56 | 192 | 0.0 | 7.8 | 0.03 | 0.22 | 0.22 | 100 | 1006.0 |
| 20260902193035 | 56 | 216 | 1.7 | 7.8 | 0.05 | 0.22 | 0.22 | 100 | 1006.0 |
| 20260902191530 | 56 | 177 | 1.7 | 5.2 | 0.06 | 0.21 | 0.21 | 100 | 1005.9 |
| 20260902190026 | 56 | 215 | 0.0 | 7.0 | 0.11 | 0.20 | 0.20 | 100 | 1005.8 |
| 20260902184522 | 56 | 207 | 0.0 | 4.3 | 0.11 | 0.19 | 0.19 | 100 | 1006.0 |
| 20260902183017 | 56 | 207 | 0.0 | 3.5 | 0.09 | 0.17 | 0.17 | 100 | 1006.3 |
| 20260902181512 | 56 | 232 | 0.9 | 3.5 | 0.08 | 0.15 | 0.15 | 100 | 1006.5 |
| 20260902180010 | 56 | 355 | 0.0 | 5.2 | 0.04 | 0.09 | 0.09 | 100 | 1006.3 |
| 20260902174505 | 56 | 190 | 0.9 | 5.2 | 0.05 | 0.08 | 0.08 | 100 | 1006.5 |
| 20260902173133 | 56 | 252 | 0.0 | 3.5 | 0.07 | 0.08 | 0.08 | 100 | 1006.7 |
| 20260902171605 | 56 | 236 | 0.9 | 5.2 | 0.07 | 0.07 | 0.07 | 100 | 1006.9 |
| 20260902170057 | 56 | 202 | 0.9 | 7.8 | 0.05 | 0.05 | 0.05 | 11 | 1006.9 |
| 20260902164554 | 57 | 161 | 1.7 | 5.2 | 0.03 | 0.03 | 0.03 | 22 | 1006.8 |
| 20260902163046 | 58 | 175 | 0.9 | 2.6 | 0.01 | 0.01 | 0.01 | 32 | 1006.6 |
| 20260902161546 | 59 | 198 | 0.0 | 3.5 | 0.00 | 0.00 | 0.00 | 36 | 1006.4 |
| 20260902160059 | 59 | 179 | 0.0 | 1.7 | 0.00 | 0.00 | 0.00 | 39 | 1006.3 |
| 20260902154546 | 59 | 178 | 0.0 | 1.7 | 0.00 | 0.00 | 0.00 | 41 | 1006.4 |
| 20260902153043 | 59 | 196 | 0.9 | 3.5 | 0.00 | 0.00 | 0.00 | 44 | 1006.7 |
| 20260902151540 | 59 | 210 | 0.0 | 3.5 | 0.00 | 0.00 | 0.00 | 44 | 1006.8 |
| 20260902150036 | 58 | 198 | 0.9 | 3.5 | 0.00 | 0.00 | 0.00 | 38 | 1006.9 |
| 20260902144534 | 57 | 170 | 0.0 | 0.9 | 0.00 | 0.00 | 0.00 | 27 | 1007.0 |
| 20260902143038 | 57 | 170 | 0.0 | 0.0 | 0.00 | 0.00 | 0.00 | 25 | 1007.1 |
| 20260902141538 | 57 | 170 | 0.0 | 0.9 | 0.00 | 0.00 | 0.00 | 27 | 1007.1 |
| 20260902140033 | 57 | 170 | 0.0 | 0.0 | 0.00 | 0.00 | 0.00 | 27 | 1007.2 |
| 20260902134531 | 57 | 170 | 0.0 | 0.0 | 0.00 | 0.00 | 0.00 | 28 | 1007.3 |
| 20260902133035 | 57 | 170 | 0.0 | 0.0 | 0.00 | 0.00 | 0.00 | 31 | 1007.7 |
| 20260902131527 | 57 | 170 | 0.0 | 0.0 | 0.00 | 0.00 | 0.00 | 31 | 1007.8 |
| 20260902130024 | 57 | 170 | 0.0 | 1.7 | 0.00 | 0.00 | 0.00 | 34 | 1008.1 |
| 20260902124526 | 57 | 170 | 0.0 | 0.0 | 0.00 | 0.00 | 0.00 | 35 | 1008.3 |
| 20260902123022 | 57 | 170 | 0.0 | 0.9 | 0.00 | 0.00 | 0.00 | 39 | 1008.5 |
| 20260902121520 | 58 | 170 | 0.0 | 0.0 | 0.00 | 0.00 | 0.00 | 43 | 1008.7 |
| 20260902120022 | 58 | 170 | 0.0 | 0.0 | 0.00 | 0.00 | 0.00 | 45 | 1008.8 |
| 20260902114525 | 58 | 170 | 0.0 | 2.6 | 0.00 | 0.00 | 0.00 | 44 | 1009.0 |
| 20260902113015 | 58 | 142 | 0.0 | 0.9 | 0.00 | 0.00 | 0.00 | 43 | 1009.3 |
| 20260902111514 | 58 | 142 | 0.0 | 1.7 | 0.00 | 0.00 | 0.00 | 41 | 1009.5 |
| 20260902110012 | 57 | 135 | 0.0 | 3.5 | 0.00 | 0.00 | 0.00 | 36 | 1009.6 |
| 20260902104517 | 56 | 253 | 0.0 | 2.6 | 0.00 | 0.00 | 0.00 | 26 | 1009.8 |
| 20260902103008 | 56 | 234 | 0.0 | 0.0 | 0.00 | 0.00 | 0.00 | 22 | 1010.1 |
| 20260902101508 | 56 | 234 | 0.0 | 0.0 | 0.00 | 0.00 | 0.00 | 24 | 1010.1 |
| 20260902100005 | 55 | 234 | 0.0 | 0.0 | 0.00 | 0.00 | 0.00 | 24 | 1010.2 |
| 20260902094503 | 55 | 234 | 0.0 | 0.0 | 0.00 | 0.00 | 0.00 | 26 | 1010.3 |
| 20260902093000 | 55 | 234 | 0.0 | 0.0 | 0.00 | 0.00 | 0.00 | 29 | 1010.4 |
| 20260902091612 | 56 | 234 | 0.0 | 0.0 | 0.00 | 0.00 | 0.00 | 33 | 1010.6 |
| 20260902090056 | 56 | 234 | 0.0 | 0.9 | 0.00 | 0.00 | 0.00 | 35 | 1010.6 |
| 20260902084554 | 56 | 180 | 0.0 | 1.7 | 0.00 | 0.00 | 0.00 | 38 | 1010.9 |
| 20260902083055 | 56 | 180 | 0.0 | 0.0 | 0.00 | 0.00 | 0.00 | 42 | 1010.9 |
| 20260902081550 | 57 | 180 | 0.0 | 0.9 | 0.00 | 0.00 | 0.00 | 46 | 1011.0 |
| 20260902080050 | 57 | 180 | 0.0 | 2.6 | 0.00 | 0.00 | 0.00 | 48 | 1011.1 |
| 20260902074546 | 58 | 136 | 0.0 | 4.3 | 0.00 | 0.00 | 0.00 | 48 | 1011.0 |
| 20260902073048 | 58 | 215 | 0.0 | 2.6 | 0.00 | 0.00 | 0.00 | 49 | 1011.0 |
| 20260902071548 | 58 | 205 | 0.0 | 4.3 | 0.00 | 0.00 | 0.00 | 50 | 1011.2 |
| 20260902070047 | 58 | 286 | 0.0 | 4.3 | 0.00 | 0.00 | 0.00 | 47 | 1011.3 |